Year,Month,Day,Hour,Minute,Value (Times are PST for windspeed in km/hr)
2007,05,10,00,00,0.00
2007,05,10,00,01,0.00
2007,05,10,00,02,0.00
2007,05,10,00,03,0.00
2007,05,10,00,04,0.00
2007,05,10,00,05,0.00
2007,05,10,00,06,0.00
2007,05,10,00,07,0.00
2007,05,10,00,08,0.00
2007,05,10,00,09,0.00
2007,05,10,00,10,0.00
2007,05,10,00,11,0.00
2007,05,10,00,12,0.00
2007,05,10,00,13,0.00
2007,05,10,00,14,0.00
2007,05,10,00,15,0.10
2007,05,10,00,16,0.40
2007,05,10,00,17,2.50
2007,05,10,00,18,2.90
2007,05,10,00,19,3.50
2007,05,10,00,20,3.90
2007,05,10,00,21,0.80
2007,05,10,00,22,0.00
2007,05,10,00,23,0.00
2007,05,10,00,24,0.00
2007,05,10,00,25,0.00
2007,05,10,00,26,0.00
2007,05,10,00,27,0.00
2007,05,10,00,28,0.00
2007,05,10,00,29,0.00
2007,05,10,00,30,0.00
2007,05,10,00,31,0.00
2007,05,10,00,32,0.00
2007,05,10,00,33,0.00
2007,05,10,00,34,0.00
2007,05,10,00,35,0.00
2007,05,10,00,36,0.00
2007,05,10,00,37,0.00
2007,05,10,00,38,0.00
2007,05,10,00,39,0.00
2007,05,10,00,40,0.00
2007,05,10,00,41,0.00
2007,05,10,00,42,0.00
2007,05,10,00,43,0.00
2007,05,10,00,44,0.90
2007,05,10,00,45,2.00
2007,05,10,00,46,0.90
2007,05,10,00,47,0.00
2007,05,10,00,48,0.00
2007,05,10,00,49,0.00
2007,05,10,00,50,0.00
2007,05,10,00,51,0.00
2007,05,10,00,52,0.00
2007,05,10,00,53,0.00
2007,05,10,00,54,0.00
2007,05,10,00,55,0.10
2007,05,10,00,56,0.00
2007,05,10,00,57,0.00
2007,05,10,00,58,0.00
2007,05,10,00,59,0.00
2007,05,10,01,00,0.10
2007,05,10,01,01,0.00
2007,05,10,01,02,0.50
2007,05,10,01,03,0.20
2007,05,10,01,04,0.00
2007,05,10,01,05,0.00
2007,05,10,01,06,0.20
2007,05,10,01,07,0.70
2007,05,10,01,08,0.10
2007,05,10,01,09,0.00
2007,05,10,01,10,0.00
2007,05,10,01,11,0.00
2007,05,10,01,12,0.00
2007,05,10,01,13,0.00
2007,05,10,01,14,0.10
2007,05,10,01,15,0.30
2007,05,10,01,16,0.40
2007,05,10,01,17,1.50
2007,05,10,01,18,0.70
2007,05,10,01,19,1.40
2007,05,10,01,20,0.80
2007,05,10,01,21,0.00
2007,05,10,01,22,0.00
2007,05,10,01,23,0.00
2007,05,10,01,24,0.00
2007,05,10,01,25,0.00
2007,05,10,01,26,0.00
2007,05,10,01,27,0.00
2007,05,10,01,28,0.00
2007,05,10,01,29,0.10
2007,05,10,01,30,0.00
2007,05,10,01,31,0.00
2007,05,10,01,32,0.00
2007,05,10,01,33,0.00
2007,05,10,01,34,0.00
2007,05,10,01,35,0.00
2007,05,10,01,36,0.00
2007,05,10,01,37,0.00
2007,05,10,01,38,0.00
2007,05,10,01,39,0.00
2007,05,10,01,40,0.00
2007,05,10,01,41,0.00
2007,05,10,01,42,0.00
2007,05,10,01,43,0.00
2007,05,10,01,44,0.00
2007,05,10,01,45,0.00
2007,05,10,01,46,0.00
2007,05,10,01,47,0.00
2007,05,10,01,48,0.00
2007,05,10,01,49,0.00
2007,05,10,01,50,0.00
2007,05,10,01,51,0.00
2007,05,10,01,52,0.00
2007,05,10,01,53,0.00
2007,05,10,01,54,0.00
2007,05,10,01,55,0.00
2007,05,10,01,56,0.00
2007,05,10,01,57,0.00
2007,05,10,01,58,0.00
2007,05,10,01,59,0.00
2007,05,10,02,00,0.00
2007,05,10,02,01,0.00
2007,05,10,02,02,0.00
2007,05,10,02,03,0.00
2007,05,10,02,04,0.00
2007,05,10,02,05,0.00
2007,05,10,02,06,0.10
2007,05,10,02,07,0.30
2007,05,10,02,08,1.80
2007,05,10,02,09,1.60
2007,05,10,02,10,0.90
2007,05,10,02,11,0.00
2007,05,10,02,12,0.00
2007,05,10,02,13,0.00
2007,05,10,02,14,0.10
2007,05,10,02,15,0.00
2007,05,10,02,16,0.00
2007,05,10,02,17,0.00
2007,05,10,02,18,0.00
2007,05,10,02,19,0.00
2007,05,10,02,20,0.00
2007,05,10,02,21,0.30
2007,05,10,02,22,0.00
2007,05,10,02,23,0.00
2007,05,10,02,24,0.00
2007,05,10,02,25,0.00
2007,05,10,02,26,0.00
2007,05,10,02,27,0.00
2007,05,10,02,28,0.20
2007,05,10,02,29,0.10
2007,05,10,02,30,0.00
2007,05,10,02,31,0.00
2007,05,10,02,32,0.00
2007,05,10,02,33,0.30
2007,05,10,02,34,0.00
2007,05,10,02,35,0.00
2007,05,10,02,36,0.00
2007,05,10,02,37,0.00
2007,05,10,02,38,0.00
2007,05,10,02,39,0.40
2007,05,10,02,40,1.60
2007,05,10,02,41,0.50
2007,05,10,02,42,0.10
2007,05,10,02,43,0.00
2007,05,10,02,44,0.00
2007,05,10,02,45,0.00
2007,05,10,02,46,0.00
2007,05,10,02,47,0.00
2007,05,10,02,48,0.00
2007,05,10,02,49,0.00
2007,05,10,02,50,0.00
2007,05,10,02,51,0.00
2007,05,10,02,52,0.00
2007,05,10,02,53,0.00
2007,05,10,02,54,0.00
2007,05,10,02,55,0.00
2007,05,10,02,56,0.00
2007,05,10,02,57,0.00
2007,05,10,02,58,0.00
2007,05,10,02,59,0.00
2007,05,10,03,00,0.00
2007,05,10,03,01,0.00
2007,05,10,03,02,0.00
2007,05,10,03,03,0.00
2007,05,10,03,04,0.00
2007,05,10,03,05,0.00
2007,05,10,03,06,0.00
2007,05,10,03,07,0.00
2007,05,10,03,08,0.00
2007,05,10,03,09,0.00
2007,05,10,03,10,0.00
2007,05,10,03,11,0.00
2007,05,10,03,12,0.00
2007,05,10,03,13,0.00
2007,05,10,03,14,0.00
2007,05,10,03,15,0.00
2007,05,10,03,16,0.00
2007,05,10,03,17,0.00
2007,05,10,03,18,0.00
2007,05,10,03,19,0.00
2007,05,10,03,20,0.00
2007,05,10,03,21,0.00
2007,05,10,03,22,0.00
2007,05,10,03,23,0.00
2007,05,10,03,24,0.00
2007,05,10,03,25,0.00
2007,05,10,03,26,0.10
2007,05,10,03,27,0.00
2007,05,10,03,28,0.00
2007,05,10,03,29,0.00
2007,05,10,03,30,0.00
2007,05,10,03,31,0.00
2007,05,10,03,32,0.00
2007,05,10,03,33,0.00
2007,05,10,03,34,0.00
2007,05,10,03,35,0.00
2007,05,10,03,36,0.00
2007,05,10,03,37,0.00
2007,05,10,03,38,0.00
2007,05,10,03,39,0.00
2007,05,10,03,40,0.00
2007,05,10,03,41,0.00
2007,05,10,03,42,0.00
2007,05,10,03,43,0.00
2007,05,10,03,44,0.00
2007,05,10,03,45,0.00
2007,05,10,03,46,0.00
2007,05,10,03,47,0.00
2007,05,10,03,48,0.00
2007,05,10,03,49,0.00
2007,05,10,03,50,0.00
2007,05,10,03,51,0.00
2007,05,10,03,52,0.00
2007,05,10,03,53,0.00
2007,05,10,03,54,0.00
2007,05,10,03,55,0.00
2007,05,10,03,56,0.00
2007,05,10,03,57,0.00
2007,05,10,03,58,0.00
2007,05,10,03,59,0.00
2007,05,10,04,00,0.00
2007,05,10,04,01,0.00
2007,05,10,04,02,0.00
2007,05,10,04,03,0.00
2007,05,10,04,04,0.00
2007,05,10,04,05,0.00
2007,05,10,04,06,0.00
2007,05,10,04,07,0.00
2007,05,10,04,08,0.00
2007,05,10,04,09,0.00
2007,05,10,04,10,0.00
2007,05,10,04,11,0.00
2007,05,10,04,12,0.00
2007,05,10,04,13,0.00
2007,05,10,04,14,0.00
2007,05,10,04,15,0.00
2007,05,10,04,16,0.00
2007,05,10,04,17,0.00
2007,05,10,04,18,0.00
2007,05,10,04,19,0.00
2007,05,10,04,20,0.00
2007,05,10,04,21,0.00
2007,05,10,04,22,0.00
2007,05,10,04,23,0.00
2007,05,10,04,24,0.00
2007,05,10,04,25,0.00
2007,05,10,04,26,0.00
2007,05,10,04,27,0.00
2007,05,10,04,28,0.00
2007,05,10,04,29,0.00
2007,05,10,04,30,0.00
2007,05,10,04,31,0.00
2007,05,10,04,32,0.00
2007,05,10,04,33,0.00
2007,05,10,04,34,0.00
2007,05,10,04,35,0.00
2007,05,10,04,36,0.00
2007,05,10,04,37,0.00
2007,05,10,04,38,0.00
2007,05,10,04,39,0.00
2007,05,10,04,40,0.00
2007,05,10,04,41,0.00
2007,05,10,04,42,0.00
2007,05,10,04,43,0.00
2007,05,10,04,44,0.00
2007,05,10,04,45,0.00
2007,05,10,04,46,0.00
2007,05,10,04,47,0.00
2007,05,10,04,48,0.00
2007,05,10,04,49,0.00
2007,05,10,04,50,0.00
2007,05,10,04,51,0.00
2007,05,10,04,52,0.00
2007,05,10,04,53,0.00
2007,05,10,04,54,0.00
2007,05,10,04,55,0.00
2007,05,10,04,56,0.00
2007,05,10,04,57,0.00
2007,05,10,04,58,0.00
2007,05,10,04,59,0.00
2007,05,10,05,00,0.00
2007,05,10,05,01,0.00
2007,05,10,05,02,0.00
2007,05,10,05,03,0.00
2007,05,10,05,04,0.00
2007,05,10,05,05,0.00
2007,05,10,05,06,0.00
2007,05,10,05,07,0.00
2007,05,10,05,08,0.00
2007,05,10,05,09,0.00
2007,05,10,05,10,0.00
2007,05,10,05,11,0.00
2007,05,10,05,12,0.00
2007,05,10,05,13,0.00
2007,05,10,05,14,0.00
2007,05,10,05,15,0.00
2007,05,10,05,16,0.00
2007,05,10,05,17,0.00
2007,05,10,05,18,0.00
2007,05,10,05,19,0.00
2007,05,10,05,20,0.00
2007,05,10,05,21,0.00
2007,05,10,05,22,0.00
2007,05,10,05,23,0.00
2007,05,10,05,24,0.00
2007,05,10,05,25,0.00
2007,05,10,05,26,0.00
2007,05,10,05,27,0.00
2007,05,10,05,28,0.00
2007,05,10,05,29,0.00
2007,05,10,05,30,0.00
2007,05,10,05,31,0.00
2007,05,10,05,32,0.00
2007,05,10,05,33,0.00
2007,05,10,05,34,0.00
2007,05,10,05,35,0.00
2007,05,10,05,36,0.00
2007,05,10,05,37,0.00
2007,05,10,05,38,0.00
2007,05,10,05,39,0.00
2007,05,10,05,40,0.00
2007,05,10,05,41,0.00
2007,05,10,05,42,0.00
2007,05,10,05,43,0.00
2007,05,10,05,44,0.00
2007,05,10,05,45,0.00
2007,05,10,05,46,0.00
2007,05,10,05,47,0.00
2007,05,10,05,48,0.00
2007,05,10,05,49,0.00
2007,05,10,05,50,0.00
2007,05,10,05,51,0.00
2007,05,10,05,52,0.00
2007,05,10,05,53,0.10
2007,05,10,05,54,0.00
2007,05,10,05,55,0.00
2007,05,10,05,56,0.00
2007,05,10,05,57,0.00
2007,05,10,05,58,0.00
2007,05,10,05,59,0.00
2007,05,10,06,00,0.00
2007,05,10,06,01,0.00
2007,05,10,06,02,0.00
2007,05,10,06,03,0.00
2007,05,10,06,04,0.00
2007,05,10,06,05,0.00
2007,05,10,06,06,0.00
2007,05,10,06,07,0.00
2007,05,10,06,08,0.00
2007,05,10,06,09,0.00
2007,05,10,06,10,0.00
2007,05,10,06,11,0.00
2007,05,10,06,12,0.00
2007,05,10,06,13,0.00
2007,05,10,06,14,0.00
2007,05,10,06,15,0.00
2007,05,10,06,16,0.00
2007,05,10,06,17,0.00
2007,05,10,06,18,0.00
2007,05,10,06,19,0.00
2007,05,10,06,20,0.00
2007,05,10,06,21,0.00
2007,05,10,06,22,0.00
2007,05,10,06,23,0.00
2007,05,10,06,24,0.00
2007,05,10,06,25,0.00
2007,05,10,06,26,0.00
2007,05,10,06,27,0.00
2007,05,10,06,28,0.00
2007,05,10,06,29,0.10
2007,05,10,06,30,0.00
2007,05,10,06,31,0.00
2007,05,10,06,32,0.00
2007,05,10,06,33,0.00
2007,05,10,06,34,0.00
2007,05,10,06,35,0.00
2007,05,10,06,36,0.00
2007,05,10,06,37,0.00
2007,05,10,06,38,0.00
2007,05,10,06,39,0.00
2007,05,10,06,40,0.10
2007,05,10,06,41,0.00
2007,05,10,06,42,0.10
2007,05,10,06,43,0.00
2007,05,10,06,44,0.00
2007,05,10,06,45,0.00
2007,05,10,06,46,0.00
2007,05,10,06,47,0.00
2007,05,10,06,48,0.00
2007,05,10,06,49,0.00
2007,05,10,06,50,0.00
2007,05,10,06,51,0.20
2007,05,10,06,52,0.80
2007,05,10,06,53,0.20
2007,05,10,06,54,0.20
2007,05,10,06,55,0.30
2007,05,10,06,56,0.10
2007,05,10,06,57,0.10
2007,05,10,06,58,0.00
2007,05,10,06,59,0.00
2007,05,10,07,00,0.00
2007,05,10,07,01,0.00
2007,05,10,07,02,0.00
2007,05,10,07,03,0.20
2007,05,10,07,04,0.00
2007,05,10,07,05,0.00
2007,05,10,07,06,0.00
2007,05,10,07,07,0.20
2007,05,10,07,08,0.00
2007,05,10,07,09,0.10
2007,05,10,07,10,0.00
2007,05,10,07,11,0.00
2007,05,10,07,12,0.00
2007,05,10,07,13,0.10
2007,05,10,07,14,0.00
2007,05,10,07,15,0.00
2007,05,10,07,16,0.00
2007,05,10,07,17,0.00
2007,05,10,07,18,0.00
2007,05,10,07,19,0.00
2007,05,10,07,20,0.10
2007,05,10,07,21,0.00
2007,05,10,07,22,0.00
2007,05,10,07,23,0.00
2007,05,10,07,24,0.00
2007,05,10,07,25,0.10
2007,05,10,07,26,0.60
2007,05,10,07,27,1.20
2007,05,10,07,28,1.40
2007,05,10,07,29,1.60
2007,05,10,07,30,0.30
2007,05,10,07,31,0.90
2007,05,10,07,32,0.80
2007,05,10,07,33,2.00
2007,05,10,07,34,0.20
2007,05,10,07,35,0.10
2007,05,10,07,36,0.00
2007,05,10,07,37,0.40
2007,05,10,07,38,0.80
2007,05,10,07,39,0.60
2007,05,10,07,40,0.40
2007,05,10,07,41,1.00
2007,05,10,07,42,0.40
2007,05,10,07,43,0.90
2007,05,10,07,44,1.10
2007,05,10,07,45,0.20
2007,05,10,07,46,0.30
2007,05,10,07,47,0.10
2007,05,10,07,48,0.00
2007,05,10,07,49,1.20
2007,05,10,07,50,0.50
2007,05,10,07,51,0.70
2007,05,10,07,52,1.80
2007,05,10,07,53,2.10
2007,05,10,07,54,0.20
2007,05,10,07,55,0.50
2007,05,10,07,56,1.20
2007,05,10,07,57,0.80
2007,05,10,07,58,1.40
2007,05,10,07,59,1.10
2007,05,10,08,00,1.60
2007,05,10,08,01,0.10
2007,05,10,08,02,0.10
2007,05,10,08,03,0.00
2007,05,10,08,04,0.10
2007,05,10,08,05,0.10
2007,05,10,08,06,0.90
2007,05,10,08,07,1.70
2007,05,10,08,08,0.80
2007,05,10,08,09,2.00
2007,05,10,08,10,1.40
2007,05,10,08,11,2.10
2007,05,10,08,12,1.90
2007,05,10,08,13,0.60
2007,05,10,08,14,0.70
2007,05,10,08,15,2.40
2007,05,10,08,16,1.80
2007,05,10,08,17,2.10
2007,05,10,08,18,0.10
2007,05,10,08,19,0.20
2007,05,10,08,20,1.70
2007,05,10,08,21,0.10
2007,05,10,08,22,0.30
2007,05,10,08,23,2.20
2007,05,10,08,24,2.20
2007,05,10,08,25,2.00
2007,05,10,08,26,1.70
2007,05,10,08,27,0.70
2007,05,10,08,28,2.10
2007,05,10,08,29,1.00
2007,05,10,08,30,2.90
2007,05,10,08,31,1.60
2007,05,10,08,32,3.00
2007,05,10,08,33,1.50
2007,05,10,08,34,0.40
2007,05,10,08,35,0.10
2007,05,10,08,36,0.40
2007,05,10,08,37,2.40
2007,05,10,08,38,0.70
2007,05,10,08,39,1.80
2007,05,10,08,40,2.10
2007,05,10,08,41,2.40
2007,05,10,08,42,0.30
2007,05,10,08,43,0.90
2007,05,10,08,44,0.30
2007,05,10,08,45,2.20
2007,05,10,08,46,0.70
2007,05,10,08,47,0.60
2007,05,10,08,48,0.60
2007,05,10,08,49,1.50
2007,05,10,08,50,1.30
2007,05,10,08,51,4.20
2007,05,10,08,52,4.50
2007,05,10,08,53,4.60
2007,05,10,08,54,1.90
2007,05,10,08,55,0.50
2007,05,10,08,56,0.90
2007,05,10,08,57,1.90
2007,05,10,08,58,3.20
2007,05,10,08,59,2.10
2007,05,10,09,00,1.90
2007,05,10,09,01,4.20
2007,05,10,09,02,4.00
2007,05,10,09,03,2.90
2007,05,10,09,04,2.90
2007,05,10,09,05,4.70
2007,05,10,09,06,5.90
2007,05,10,09,07,1.00
2007,05,10,09,08,4.30
2007,05,10,09,09,7.70
2007,05,10,09,10,3.10
2007,05,10,09,11,3.80
2007,05,10,09,12,4.30
2007,05,10,09,13,5.40
2007,05,10,09,14,2.00
2007,05,10,09,15,2.60
2007,05,10,09,16,1.90
2007,05,10,09,17,5.30
2007,05,10,09,18,1.50
2007,05,10,09,19,2.90
2007,05,10,09,20,3.00
2007,05,10,09,21,3.00
2007,05,10,09,22,1.90
2007,05,10,09,23,1.00
2007,05,10,09,24,2.00
2007,05,10,09,25,0.00
2007,05,10,09,26,1.40
2007,05,10,09,27,1.00
2007,05,10,09,28,4.20
2007,05,10,09,29,4.50
2007,05,10,09,30,3.60
2007,05,10,09,31,2.40
2007,05,10,09,32,2.70
2007,05,10,09,33,4.80
2007,05,10,09,34,3.00
2007,05,10,09,35,5.90
2007,05,10,09,36,3.80
2007,05,10,09,37,3.00
2007,05,10,09,38,0.80
2007,05,10,09,39,5.20
2007,05,10,09,40,1.50
2007,05,10,09,41,6.70
2007,05,10,09,42,5.10
2007,05,10,09,43,8.10
2007,05,10,09,44,1.40
2007,05,10,09,45,4.60
2007,05,10,09,46,4.10
2007,05,10,09,47,3.70
2007,05,10,09,48,2.50
2007,05,10,09,49,7.60
2007,05,10,09,50,2.90
2007,05,10,09,51,6.00
2007,05,10,09,52,3.70
2007,05,10,09,53,3.90
2007,05,10,09,54,4.80
2007,05,10,09,55,4.00
2007,05,10,09,56,5.00
2007,05,10,09,57,1.80
2007,05,10,09,58,1.60
2007,05,10,09,59,2.60
2007,05,10,10,00,7.80
2007,05,10,10,01,4.00
2007,05,10,10,02,3.60
2007,05,10,10,03,1.40
2007,05,10,10,04,3.10
2007,05,10,10,05,2.20
2007,05,10,10,06,5.40
2007,05,10,10,07,8.20
2007,05,10,10,08,6.40
2007,05,10,10,09,4.70
2007,05,10,10,10,4.70
2007,05,10,10,11,2.70
2007,05,10,10,12,3.90
2007,05,10,10,13,5.10
2007,05,10,10,14,3.00
2007,05,10,10,15,5.80
2007,05,10,10,16,4.10
2007,05,10,10,17,3.60
2007,05,10,10,18,3.80
2007,05,10,10,19,5.80
2007,05,10,10,20,8.10
2007,05,10,10,21,6.30
2007,05,10,10,22,5.00
2007,05,10,10,23,3.10
2007,05,10,10,24,7.00
2007,05,10,10,25,5.30
2007,05,10,10,26,3.90
2007,05,10,10,27,4.20
2007,05,10,10,28,1.10
2007,05,10,10,29,7.80
2007,05,10,10,30,6.60
2007,05,10,10,31,9.50
2007,05,10,10,32,8.10
2007,05,10,10,33,5.20
2007,05,10,10,34,6.40
2007,05,10,10,35,7.50
2007,05,10,10,36,5.10
2007,05,10,10,37,1.80
2007,05,10,10,38,5.20
2007,05,10,10,39,3.90
2007,05,10,10,40,7.60
2007,05,10,10,41,3.20
2007,05,10,10,42,4.20
2007,05,10,10,43,6.10
2007,05,10,10,44,2.40
2007,05,10,10,45,2.20
2007,05,10,10,46,4.30
2007,05,10,10,47,2.30
2007,05,10,10,48,5.90
2007,05,10,10,49,9.30
2007,05,10,10,50,6.40
2007,05,10,10,51,6.30
2007,05,10,10,52,6.70
2007,05,10,10,53,6.90
2007,05,10,10,54,10.40
2007,05,10,10,55,10.20
2007,05,10,10,56,5.60
2007,05,10,10,57,7.00
2007,05,10,10,58,3.70
2007,05,10,10,59,5.40
2007,05,10,11,00,3.00
2007,05,10,11,01,5.60
2007,05,10,11,02,8.00
2007,05,10,11,03,7.70
2007,05,10,11,04,4.40
2007,05,10,11,05,3.60
2007,05,10,11,06,2.80
2007,05,10,11,07,6.20
2007,05,10,11,08,1.80
2007,05,10,11,09,2.00
2007,05,10,11,10,3.80
2007,05,10,11,11,3.80
2007,05,10,11,12,3.30
2007,05,10,11,13,2.80
2007,05,10,11,14,3.90
2007,05,10,11,15,7.50
2007,05,10,11,16,7.00
2007,05,10,11,17,9.10
2007,05,10,11,18,5.20
2007,05,10,11,19,8.20
2007,05,10,11,20,6.50
2007,05,10,11,21,5.40
2007,05,10,11,22,3.10
2007,05,10,11,23,10.60
2007,05,10,11,24,7.00
2007,05,10,11,25,10.60
2007,05,10,11,26,8.20
2007,05,10,11,27,10.90
2007,05,10,11,28,8.60
2007,05,10,11,29,10.20
2007,05,10,11,30,5.20
2007,05,10,11,31,13.60
2007,05,10,11,32,9.60
2007,05,10,11,33,6.20
2007,05,10,11,34,6.70
2007,05,10,11,35,6.40
2007,05,10,11,36,10.50
2007,05,10,11,37,10.90
2007,05,10,11,38,7.10
2007,05,10,11,39,4.50
2007,05,10,11,40,7.10
2007,05,10,11,41,9.90
2007,05,10,11,42,7.00
2007,05,10,11,43,4.90
2007,05,10,11,44,6.00
2007,05,10,11,45,5.60
2007,05,10,11,46,7.00
2007,05,10,11,47,11.70
2007,05,10,11,48,7.40
2007,05,10,11,49,7.10
2007,05,10,11,50,5.10
2007,05,10,11,51,8.30
2007,05,10,11,52,9.10
2007,05,10,11,53,9.50
2007,05,10,11,54,9.10
2007,05,10,11,55,5.50
2007,05,10,11,56,9.90
2007,05,10,11,57,4.30
2007,05,10,11,58,3.60
2007,05,10,11,59,6.20
2007,05,10,12,00,6.00
2007,05,10,12,01,6.50
2007,05,10,12,02,5.50
2007,05,10,12,03,3.70
2007,05,10,12,04,10.10
2007,05,10,12,05,6.30
2007,05,10,12,06,4.70
2007,05,10,12,07,5.50
2007,05,10,12,08,2.40
2007,05,10,12,09,3.20
2007,05,10,12,10,5.90
2007,05,10,12,11,6.90
2007,05,10,12,12,6.10
2007,05,10,12,13,9.40
2007,05,10,12,14,8.10
2007,05,10,12,15,7.30
2007,05,10,12,16,3.00
2007,05,10,12,17,6.40
2007,05,10,12,18,9.10
2007,05,10,12,19,9.50
2007,05,10,12,20,5.00
2007,05,10,12,21,3.60
2007,05,10,12,22,8.50
2007,05,10,12,23,8.80
2007,05,10,12,24,4.30
2007,05,10,12,25,5.80
2007,05,10,12,26,6.70
2007,05,10,12,27,3.80
2007,05,10,12,28,6.20
2007,05,10,12,29,8.90
2007,05,10,12,30,11.00
2007,05,10,12,31,4.40
2007,05,10,12,32,5.50
2007,05,10,12,33,8.70
2007,05,10,12,34,5.10
2007,05,10,12,35,6.40
2007,05,10,12,36,7.50
2007,05,10,12,37,8.00
2007,05,10,12,38,6.00
2007,05,10,12,39,8.60
2007,05,10,12,40,7.50
2007,05,10,12,41,6.30
2007,05,10,12,42,3.80
2007,05,10,12,43,10.50
2007,05,10,12,44,5.00
2007,05,10,12,45,5.90
2007,05,10,12,46,6.10
2007,05,10,12,47,7.30
2007,05,10,12,48,3.50
2007,05,10,12,49,7.60
2007,05,10,12,50,6.80
2007,05,10,12,51,7.20
2007,05,10,12,52,9.00
2007,05,10,12,53,4.20
2007,05,10,12,54,4.60
2007,05,10,12,55,3.40
2007,05,10,12,56,5.20
2007,05,10,12,57,4.90
2007,05,10,12,58,1.80
2007,05,10,12,59,2.80
2007,05,10,13,00,4.70
2007,05,10,13,01,5.30
2007,05,10,13,02,5.00
2007,05,10,13,03,5.30
2007,05,10,13,04,6.80
2007,05,10,13,05,7.70
2007,05,10,13,06,9.50
2007,05,10,13,07,5.10
2007,05,10,13,08,3.70
2007,05,10,13,09,4.30
2007,05,10,13,10,6.40
2007,05,10,13,11,6.90
2007,05,10,13,12,3.00
2007,05,10,13,13,4.40
2007,05,10,13,14,6.00
2007,05,10,13,15,5.10
2007,05,10,13,16,8.80
2007,05,10,13,17,4.40
2007,05,10,13,18,6.50
2007,05,10,13,19,4.50
2007,05,10,13,20,5.90
2007,05,10,13,21,7.20
2007,05,10,13,22,6.20
2007,05,10,13,23,7.20
2007,05,10,13,24,6.20
2007,05,10,13,25,5.50
2007,05,10,13,26,6.20
2007,05,10,13,27,3.40
2007,05,10,13,28,4.00
2007,05,10,13,29,7.30
2007,05,10,13,30,10.10
2007,05,10,13,31,6.50
2007,05,10,13,32,7.20
2007,05,10,13,33,3.50
2007,05,10,13,34,3.70
2007,05,10,13,35,6.20
2007,05,10,13,36,8.90
2007,05,10,13,37,3.70
2007,05,10,13,38,5.80
2007,05,10,13,39,5.10
2007,05,10,13,40,6.70
2007,05,10,13,41,4.30
2007,05,10,13,42,4.50
2007,05,10,13,43,4.30
2007,05,10,13,44,4.80
2007,05,10,13,45,5.90
2007,05,10,13,46,10.30
2007,05,10,13,47,6.40
2007,05,10,13,48,9.00
2007,05,10,13,49,9.30
2007,05,10,13,50,7.60
2007,05,10,13,51,8.60
2007,05,10,13,52,9.00
2007,05,10,13,53,4.40
2007,05,10,13,54,5.10
2007,05,10,13,55,5.70
2007,05,10,13,56,3.00
2007,05,10,13,57,3.20
2007,05,10,13,58,4.70
2007,05,10,13,59,4.40
2007,05,10,14,00,6.70
2007,05,10,14,01,7.50
2007,05,10,14,02,7.60
2007,05,10,14,03,3.20
2007,05,10,14,04,6.10
2007,05,10,14,05,7.00
2007,05,10,14,06,9.80
2007,05,10,14,07,9.10
2007,05,10,14,08,6.40
2007,05,10,14,09,2.90
2007,05,10,14,10,4.60
2007,05,10,14,11,5.40
2007,05,10,14,12,5.20
2007,05,10,14,13,13.00
2007,05,10,14,14,11.70
2007,05,10,14,15,7.20
2007,05,10,14,16,7.20
2007,05,10,14,17,5.10
2007,05,10,14,18,7.10
2007,05,10,14,19,4.70
2007,05,10,14,20,9.20
2007,05,10,14,21,5.80
2007,05,10,14,22,9.70
2007,05,10,14,23,5.60
2007,05,10,14,24,7.30
2007,05,10,14,25,7.20
2007,05,10,14,26,4.00
2007,05,10,14,27,7.40
2007,05,10,14,28,4.10
2007,05,10,14,29,9.90
2007,05,10,14,30,4.80
2007,05,10,14,31,8.00
2007,05,10,14,32,4.50
2007,05,10,14,33,11.20
2007,05,10,14,34,7.20
2007,05,10,14,35,6.40
2007,05,10,14,36,5.60
2007,05,10,14,37,3.00
2007,05,10,14,38,6.00
2007,05,10,14,39,7.60
2007,05,10,14,40,6.80
2007,05,10,14,41,6.00
2007,05,10,14,42,9.70
2007,05,10,14,43,3.70
2007,05,10,14,44,9.00
2007,05,10,14,45,8.00
2007,05,10,14,46,3.70
2007,05,10,14,47,9.70
2007,05,10,14,48,6.50
2007,05,10,14,49,6.70
2007,05,10,14,50,7.10
2007,05,10,14,51,6.10
2007,05,10,14,52,5.60
2007,05,10,14,53,11.20
2007,05,10,14,54,6.60
2007,05,10,14,55,7.20
2007,05,10,14,56,12.00
2007,05,10,14,57,7.10
2007,05,10,14,58,5.30
2007,05,10,14,59,7.00
2007,05,10,15,00,5.00
2007,05,10,15,01,11.90
2007,05,10,15,02,7.60
2007,05,10,15,03,8.80
2007,05,10,15,04,7.40
2007,05,10,15,05,9.20
2007,05,10,15,06,8.60
2007,05,10,15,07,8.40
2007,05,10,15,08,8.90
2007,05,10,15,09,7.90
2007,05,10,15,10,5.10
2007,05,10,15,11,6.80
2007,05,10,15,12,13.30
2007,05,10,15,13,10.40
2007,05,10,15,14,10.70
2007,05,10,15,15,8.20
2007,05,10,15,16,8.10
2007,05,10,15,17,1.30
2007,05,10,15,18,2.70
2007,05,10,15,19,6.40
2007,05,10,15,20,8.80
2007,05,10,15,21,6.00
2007,05,10,15,22,6.20
2007,05,10,15,23,9.10
2007,05,10,15,24,13.60
2007,05,10,15,25,5.00
2007,05,10,15,26,4.20
2007,05,10,15,27,5.40
2007,05,10,15,28,2.50
2007,05,10,15,29,8.10
2007,05,10,15,30,4.40
2007,05,10,15,31,8.70
2007,05,10,15,32,3.80
2007,05,10,15,33,3.50
2007,05,10,15,34,8.10
2007,05,10,15,35,6.60
2007,05,10,15,36,10.30
2007,05,10,15,37,6.30
2007,05,10,15,38,10.60
2007,05,10,15,39,7.10
2007,05,10,15,40,5.00
2007,05,10,15,41,9.10
2007,05,10,15,42,6.10
2007,05,10,15,43,3.90
2007,05,10,15,44,3.60
2007,05,10,15,45,2.20
2007,05,10,15,46,4.90
2007,05,10,15,47,1.90
2007,05,10,15,48,8.50
2007,05,10,15,49,9.50
2007,05,10,15,50,6.80
2007,05,10,15,51,6.80
2007,05,10,15,52,9.40
2007,05,10,15,53,6.80
2007,05,10,15,54,5.10
2007,05,10,15,55,2.60
2007,05,10,15,56,10.30
2007,05,10,15,57,8.60
2007,05,10,15,58,10.70
2007,05,10,15,59,6.30
2007,05,10,16,00,6.40
2007,05,10,16,01,6.20
2007,05,10,16,02,4.30
2007,05,10,16,03,7.30
2007,05,10,16,04,8.00
2007,05,10,16,05,5.90
2007,05,10,16,06,2.70
2007,05,10,16,07,8.20
2007,05,10,16,08,10.50
2007,05,10,16,09,8.90
2007,05,10,16,10,11.00
2007,05,10,16,11,6.60
2007,05,10,16,12,9.20
2007,05,10,16,13,8.20
2007,05,10,16,14,6.40
2007,05,10,16,15,9.10
2007,05,10,16,16,11.20
2007,05,10,16,17,7.40
2007,05,10,16,18,8.70
2007,05,10,16,19,6.30
2007,05,10,16,20,7.20
2007,05,10,16,21,13.30
2007,05,10,16,22,9.10
2007,05,10,16,23,7.70
2007,05,10,16,24,10.10
2007,05,10,16,25,8.40
2007,05,10,16,26,8.60
2007,05,10,16,27,14.30
2007,05,10,16,28,11.60
2007,05,10,16,29,4.10
2007,05,10,16,30,3.30
2007,05,10,16,31,7.50
2007,05,10,16,32,7.30
2007,05,10,16,33,11.10
2007,05,10,16,34,12.80
2007,05,10,16,35,13.10
2007,05,10,16,36,13.10
2007,05,10,16,37,12.40
2007,05,10,16,38,16.90
2007,05,10,16,39,10.80
2007,05,10,16,40,9.80
2007,05,10,16,41,11.30
2007,05,10,16,42,10.60
2007,05,10,16,43,7.00
2007,05,10,16,44,11.10
2007,05,10,16,45,8.80
2007,05,10,16,46,6.20
2007,05,10,16,47,5.20
2007,05,10,16,48,4.80
2007,05,10,16,49,3.00
2007,05,10,16,50,4.40
2007,05,10,16,51,5.00
2007,05,10,16,52,6.00
2007,05,10,16,53,15.20
2007,05,10,16,54,19.00
2007,05,10,16,55,11.00
2007,05,10,16,56,8.20
2007,05,10,16,57,9.70
2007,05,10,16,58,9.90
2007,05,10,16,59,9.30
2007,05,10,17,00,11.00
2007,05,10,17,01,9.60
2007,05,10,17,02,11.10
2007,05,10,17,03,8.60
2007,05,10,17,04,12.70
2007,05,10,17,05,8.50
2007,05,10,17,06,6.00
2007,05,10,17,07,12.70
2007,05,10,17,08,12.30
2007,05,10,17,09,6.40
2007,05,10,17,10,9.20
2007,05,10,17,11,8.30
2007,05,10,17,12,9.20
2007,05,10,17,13,9.90
2007,05,10,17,14,10.10
2007,05,10,17,15,7.10
2007,05,10,17,16,8.20
2007,05,10,17,17,7.60
2007,05,10,17,18,8.10
2007,05,10,17,19,5.80
2007,05,10,17,20,3.20
2007,05,10,17,21,7.50
2007,05,10,17,22,1.50
2007,05,10,17,23,6.20
2007,05,10,17,24,4.50
2007,05,10,17,25,10.50
2007,05,10,17,26,11.90
2007,05,10,17,27,8.90
2007,05,10,17,28,7.50
2007,05,10,17,29,3.70
2007,05,10,17,30,8.50
2007,05,10,17,31,6.00
2007,05,10,17,32,4.40
2007,05,10,17,33,7.00
2007,05,10,17,34,5.90
2007,05,10,17,35,3.10
2007,05,10,17,36,3.90
2007,05,10,17,37,6.80
2007,05,10,17,38,3.90
2007,05,10,17,39,11.70
2007,05,10,17,40,5.20
2007,05,10,17,41,4.10
2007,05,10,17,42,4.80
2007,05,10,17,43,7.60
2007,05,10,17,44,8.50
2007,05,10,17,45,11.90
2007,05,10,17,46,5.30
2007,05,10,17,47,14.70
2007,05,10,17,48,5.50
2007,05,10,17,49,8.40
2007,05,10,17,50,5.80
2007,05,10,17,51,5.00
2007,05,10,17,52,10.00
2007,05,10,17,53,4.20
2007,05,10,17,54,5.40
2007,05,10,17,55,4.30
2007,05,10,17,56,3.30
2007,05,10,17,57,3.80
2007,05,10,17,58,6.40
2007,05,10,17,59,5.30
2007,05,10,18,00,7.70
2007,05,10,18,01,8.10
2007,05,10,18,02,8.40
2007,05,10,18,03,2.90